Location: Beneden-Haastrecht
(52.0012°N, 4.7557°E)
Time: 11:53:37
(UTC+00:00)

CZ-4 R/B - Pass Details

Date: 24 October 2020
Orbit: 531 x 598 km, 97.7° (Epoch: 24 November)

Event Time Altitude Azimuth Distance (km) Brightness Sun altitude
Rises 18:58:39 0° 196° (SSW) 2,713 4.9 -23.8°
Reaches altitude 10° 19:01:05 10° 211° (SSW) 1,814 4.2 -24.2°
Maximum altitude 19:04:18 24° 266° (W) 1,146 3.6 -24.7°
Drops below altitude 10° 19:07:31 10° 322° (NW) 1,805 4.6 -25.2°
Sets 19:09:57 0° 336° (NNW) 2,696 5.4 -25.5°
